Date String (YYYY-MM-DD hh:mm:ss) UTC,Instrument flags,absolute air pressure of the measurement (hPa),sample flow rate (lpm),inlet stack bypass flow (lpm),air temperature of the measurement (°C),ambient temperature measured by the external sensor (°C),aerosol sample conditioner tube jacket temperature (°C),OPC LED temperature (°C),internal box temperature (°C),relative humidity of the measurement (%),span deviation,mass concentration of particles derived from Lorenz-Mie calculation of OPC scattering (μg/m³),mass concentration of particles derived from Lorenz-Mie calculation of OPC scattering (μg/m³),mass concentration of particles derived from Lorenz-Mie calculation of OPC scattering (μg/m³)
DateTimeUTC,F1_M11,P_M11,Q1_M11,Q2_M11,T1_M11,T2_M11,T3_M11,T4_M11,T5_M11,U1_M11,ZSPAN_M11,X0_M11,X2_M11,X1_M11
2023-09-08 11:00:00,SystemResetWarning,0836.4,4.99,000.00,028.2,025.8,000.0,036.8,029.5,16.7,0001.9,0012.79,0003.53,0002.72
2023-09-08 11:01:00,SystemResetWarning,0836.4,5.00,000.00,028.2,026.0,000.0,036.7,029.5,16.7,0000.5,0012.19,0003.59,0002.75
2023-09-08 11:02:00,SystemResetWarning,0836.4,5.00,000.00,028.2,026.2,000.0,036.7,029.6,16.7,0000.0,0012.26,0003.62,0002.77
2023-09-08 11:03:00,SystemResetWarning,0836.4,5.00,000.00,028.2,026.4,000.0,036.7,029.6,16.7,0000.0,0012.28,0003.63,0002.79
2023-09-08 11:04:00,SystemResetWarning,0836.4,5.00,000.00,028.2,026.5,000.0,036.7,029.6,16.7,0000.0,0012.43,0003.67,0002.80
2023-09-08 11:05:00,SystemResetWarning,0836.4,5.00,000.00,028.2,026.5,000.0,036.7,029.7,16.7,0000.0,0011.98,0003.67,0002.80
2023-09-08 11:06:00,SystemResetWarning,0836.4,4.99,000.00,028.2,026.6,000.0,036.7,029.7,16.7,0000.0,0011.34,0003.64,0002.81
2023-09-08 11:07:00,SystemResetWarning,0836.4,4.99,000.00,028.2,026.7,000.0,036.7,029.7,16.7,0000.0,0010.78,0003.62,0002.81
2023-09-08 11:08:00,SystemResetWarning,0836.4,5.00,000.00,028.2,026.8,000.0,036.7,029.7,16.7,0000.0,0010.37,0003.60,0002.81
2023-09-08 11:09:00,SystemResetWarning,0836.4,5.01,000.00,028.3,026.8,000.0,036.7,029.8,16.7,0000.0,0009.40,0003.60,0002.78
2023-09-08 11:10:00,SystemResetWarning,0836.4,5.00,000.00,028.3,026.9,000.0,036.7,029.8,16.7,0000.0,0009.35,0003.59,0002.76
2023-09-08 11:11:00,SystemResetWarning,0836.4,4.99,000.00,028.3,026.9,000.0,036.7,029.8,16.7,0000.0,0008.69,0003.54,0002.72
2023-09-08 11:12:00,SystemResetWarning,0836.4,4.99,000.00,028.3,026.9,000.0,036.7,029.8,16.7,0000.0,0008.19,0003.46,0002.69
2023-09-08 11:13:00,SystemResetWarning,0836.4,5.00,000.00,028.3,027.0,000.0,036.7,029.8,16.7,0000.0,0008.26,0003.47,0002.65
2023-09-08 11:14:00,SystemResetWarning,0836.4,5.00,000.00,028.3,027.0,000.0,036.7,029.9,16.7,0000.0,0008.23,0003.47,0002.65
2023-09-08 11:15:00,SystemResetWarning,0836.4,5.01,000.00,028.4,027.0,000.0,036.7,029.9,16.7,0000.0,0008.11,0003.45,0002.65
2023-09-08 11:16:00,SystemResetWarning,0836.4,5.00,000.00,028.4,027.1,000.0,036.7,029.9,16.7,0000.0,0008.07,0003.45,0002.64
2023-09-08 11:17:00,SystemResetWarning,0836.4,5.00,000.00,028.4,027.1,000.0,036.7,030.0,16.7,0000.0,0007.85,0003.51,0002.63
2023-09-08 11:18:00,SystemResetWarning,0836.4,5.00,000.00,028.4,027.1,000.0,036.7,030.0,16.7,0000.0,0007.57,0003.54,0002.63
2023-09-08 11:19:00,SystemResetWarning,0836.4,4.99,000.00,028.4,027.1,000.0,036.7,030.0,16.7,0000.0,0007.35,0003.55,0002.64
2023-09-08 11:20:00,SystemResetWarning,0836.5,5.00,000.00,028.4,027.1,000.0,036.8,030.0,16.6,0000.0,0008.16,0003.54,0002.64
2023-09-08 11:21:00,SystemResetWarning,0836.5,5.00,000.00,028.5,027.1,000.0,036.8,030.0,16.7,0000.0,0009.00,0003.55,0002.64
2023-09-08 11:22:00,SystemResetWarning,0836.5,5.01,000.00,028.5,027.2,000.0,036.8,030.0,16.7,0000.0,0010.16,0003.54,0002.64
2023-09-08 11:23:00,SystemResetWarning,0836.5,5.01,000.00,028.5,027.2,000.0,036.8,030.1,16.6,0000.0,0011.03,0003.60,0002.62
2023-09-08 11:24:00,SystemResetWarning,0836.5,5.01,000.00,028.5,027.2,000.0,036.8,030.1,16.7,0000.0,0010.96,0003.58,0002.63
2023-09-08 11:25:00,SystemResetWarning,0836.5,4.99,000.00,028.5,027.2,000.0,036.8,030.1,16.6,0000.0,0011.30,0003.57,0002.60
2023-09-08 11:26:00,SystemResetWarning,0836.5,5.00,000.00,028.5,027.2,000.0,036.8,030.1,16.6,0000.0,0011.50,0003.53,0002.57
2023-09-08 11:27:00,SystemResetWarning,0836.5,4.99,000.00,028.5,027.2,000.0,036.8,030.1,16.6,0000.0,0011.46,0003.52,0002.57
2023-09-08 11:28:00,SystemResetWarning,0836.6,5.00,000.00,028.6,027.2,000.0,036.8,030.1,16.6,0000.0,0011.33,0003.47,0002.55
2023-09-08 11:29:00,SystemResetWarning,0836.6,5.01,000.00,028.6,027.3,000.0,036.8,030.1,16.6,0000.0,0011.29,0003.47,0002.53
2023-09-08 11:30:00,SystemResetWarning,0836.6,5.01,000.00,028.6,027.3,000.0,036.9,030.1,16.7,0000.0,0011.66,0003.51,0002.52
2023-09-08 11:31:00,SystemResetWarning,0836.6,5.00,000.00,028.6,027.3,000.0,036.9,030.1,16.7,0000.0,0011.43,0003.50,0002.52
2023-09-08 11:32:00,SystemResetWarning,0836.7,5.00,000.00,028.6,027.3,000.0,036.9,030.2,16.7,0000.0,0011.59,0003.48,0002.51
2023-09-08 11:33:00,SystemResetWarning,0836.6,4.99,000.00,028.6,027.3,000.0,036.9,030.2,16.7,0000.0,0011.86,0003.51,0002.53
2023-09-08 11:34:00,SystemResetWarning,0836.7,4.99,000.00,028.6,027.3,000.0,036.9,030.2,16.7,0000.0,0012.06,0003.52,0002.56
2023-09-08 11:35:00,SystemResetWarning,0836.6,4.99,000.00,028.6,027.3,000.0,036.9,030.2,16.7,0000.0,0012.48,0003.53,0002.56
2023-09-08 11:36:00,SystemResetWarning,0836.6,5.00,000.00,028.6,027.3,000.0,036.9,030.2,16.7,0000.0,0012.78,0003.56,0002.57
2023-09-08 11:37:00,SystemResetWarning,0836.6,5.01,000.00,028.7,027.3,000.0,036.9,030.2,16.6,0000.0,0012.69,0003.60,0002.59
2023-09-08 11:38:00,SystemResetWarning,0836.6,5.01,000.00,028.7,027.3,000.0,036.9,030.2,16.6,0000.0,0014.16,0003.65,0002.61
2023-09-08 11:39:00,SystemResetWarning,0836.6,5.01,000.00,028.7,027.3,000.0,036.9,030.2,16.6,0000.0,0014.97,0003.68,0002.63
2023-09-08 11:40:00,SystemResetWarning,0836.6,5.00,000.00,028.7,027.3,000.0,037.0,030.2,16.6,0000.0,0015.80,0003.67,0002.66
2023-09-08 11:41:00,SystemResetWarning,0836.6,5.00,000.00,028.7,027.4,000.0,037.0,030.2,16.6,0000.0,0015.86,0003.65,0002.67
2023-09-08 11:42:00,SystemResetWarning,0836.6,5.00,000.00,028.7,027.4,000.0,037.0,030.2,16.5,0000.0,0015.24,0003.64,0002.67
2023-09-08 11:43:00,SystemResetWarning,0836.6,4.99,000.00,028.7,027.4,000.0,037.0,030.2,16.6,0000.0,0014.58,0003.64,0002.68
2023-09-08 11:44:00,SystemResetWarning,0836.6,5.00,000.00,028.7,027.4,000.0,037.0,030.2,16.6,0000.0,0013.62,0003.64,0002.68
2023-09-08 11:45:00,SystemResetWarning,0836.6,5.00,000.00,028.7,027.4,000.0,037.0,030.2,16.5,0000.0,0013.26,0003.66,0002.68
2023-09-08 11:46:00,SystemResetWarning,0836.6,5.00,000.00,028.7,027.4,000.0,037.0,030.2,16.5,0000.0,0012.98,0003.62,0002.70
2023-09-08 11:47:00,SystemResetWarning,0836.6,5.00,000.00,028.7,027.4,000.0,037.0,030.3,16.5,0000.0,0012.67,0003.59,0002.72
2023-09-08 11:48:00,SystemResetWarning,0836.6,5.00,000.00,028.8,027.4,000.0,037.0,030.3,16.5,0000.0,0012.63,0003.59,0002.73
2023-09-08 11:49:00,SystemResetWarning,0836.6,4.99,000.00,028.8,027.4,000.0,037.0,030.3,16.5,0000.0,0011.30,0003.56,0002.73
2023-09-08 11:50:00,SystemResetWarning,0836.6,5.01,000.00,028.8,027.4,000.0,037.0,030.3,16.5,0000.0,0010.58,0003.54,0002.72
2023-09-08 11:51:00,SystemResetWarning,0836.6,5.01,000.00,028.8,027.4,000.0,037.0,030.3,16.5,0000.0,0009.68,0003.54,0002.71
2023-09-08 11:52:00,SystemResetWarning,0836.6,5.00,000.00,028.8,027.4,000.0,037.1,030.3,16.5,0000.0,0009.44,0003.56,0002.74
2023-09-08 11:53:00,SystemResetWarning,0836.6,5.01,000.00,028.8,027.4,000.0,037.1,030.3,16.5,0000.0,0009.53,0003.60,0002.76
2023-09-08 11:54:00,SystemResetWarning,0836.6,5.00,000.00,028.8,027.4,000.0,037.1,030.3,16.5,0000.0,0010.15,0003.64,0002.76
2023-09-08 11:55:00,SystemResetWarning,0836.6,5.00,000.00,028.8,027.4,000.0,037.1,030.3,16.5,0000.0,0009.67,0003.67,0002.79
2023-09-08 11:56:00,SystemResetWarning,0836.6,4.99,000.00,028.8,027.4,000.0,037.1,030.3,16.5,0000.0,0009.29,0003.68,0002.83
2023-09-08 11:57:00,SystemResetWarning,0836.6,5.00,000.00,028.8,027.4,000.0,037.1,030.3,16.5,0000.0,0009.00,0003.76,0002.86
2023-09-08 11:58:00,SystemResetWarning,0836.7,5.00,000.00,028.8,027.4,000.0,037.1,030.3,16.6,0000.0,0008.99,0003.79,0002.88
2023-09-08 11:59:00,SystemResetWarning,0836.6,5.00,000.00,028.8,027.4,000.0,037.1,030.3,16.6,0000.0,0008.60,0003.80,0002.90
